Location: Madrid
(40.4000°N, 3.6830°W)
Time: 20:36:54
(UTC+01:00)

ISS - Pass Details

Date: 23 February 2021
Orbit: 417 x 422 km, 51.6° (Epoch: 26 February)

Event Time Altitude Azimuth Distance (km) Brightness Sun altitude
Exits shadow 06:20:53 74° 274° (W) 436 -4.0 -19.1°
Maximum altitude 06:21:05 80° 324° (NW) 428 -3.9 -19.0°
Drops below altitude 10° 06:24:27 10° 51° (NE) 1,497 -0.2 -18.4°
Sets 06:26:33 0° 53° (NE) 2,364 1.0 -18.0°
